Location: Adamstown South Public School
(32.9318°S, 151.7012°E)
Time: 16:51:41
(UTC+00:00)

ATLAS CENTAUR R/B - Pass Details

Date: 07 June 2020
Orbit: 474 x 673 km, 64.7° (Epoch: 02 July)

Event Time Altitude Azimuth Distance (km) Brightness Sun altitude
Rises 08:53:47 0° 217° (SW) 3,028 5.4 -24.6°
Reaches altitude 10° 08:56:12 10° 223° (SW) 2,119 4.6 -25.1°
Maximum altitude 09:00:46 43° 293° (WNW) 956 2.9 -26.0°
Drops below altitude 10° 09:05:18 10° 4° (N) 2,092 4.3 -27.0°
Sets 09:07:40 0° 10° (N) 2,984 5.1 -27.5°
